Overview Statistics Trail Chart Weather Telemetry Raw packets
 

This is the latest recevied weather packets stored in our database for station/object WA6OOO. If no packets are shown the sender has not sent any weather packets the latest 10 day(s).

<< 31 32 33 34 35 36 37 >>
Time Temp. Humidity Pressure Rain* Wind** Luminosity Snow
1788467900 23.89° C 66% 1016.9 hPa 0 mm - 689 W/m² -
1788467596 23.89° C 67% 1017 hPa 0 mm - 695 W/m² -
1788467294 23.89° C 68% 1016.9 hPa 0 mm - 695 W/m² -
1788466991 23.89° C 67% 1016.8 hPa 0 mm - 698 W/m² -
1788466690 23.89° C 67% 1016.7 hPa 0 mm - 699 W/m² -
1788466386 23.89° C 67% 1016.8 hPa 0 mm - 698 W/m² -
1788466084 23.89° C 67% 1017 hPa 0 mm - 699 W/m² -
1788465780 23.89° C 68% 1017 hPa 0 mm - 699 W/m² -
1788465475 23.89° C 68% 1017.1 hPa 0 mm - 697 W/m² -
1788465170 23.33° C 68% 1017.1 hPa 0 mm - 697 W/m² -
1788464866 23.33° C 68% 1017.1 hPa 0 mm - 697 W/m² -
1788464561 24.44° C 67% 1017.1 hPa 0 mm - 696 W/m² -
1788464256 23.89° C 68% 1017.1 hPa 0 mm - 694 W/m² -
1788463952 23.89° C 68% 1017.2 hPa 0 mm - 691 W/m² -
1788463648 23.89° C 67% 1017.4 hPa 0 mm - 690 W/m² -
1788463343 23.89° C 68% 1017.4 hPa 0 mm - 687 W/m² -
1788463040 23.89° C 66% 1017.4 hPa 0 mm - 683 W/m² -
1788462735 23.89° C 68% 1017.4 hPa 0 mm - 680 W/m² -
1788462429 23.33° C 69% 1017.5 hPa 0 mm - 677 W/m² -
1788462129 23.89° C 68% 1017.5 hPa 0 mm - 672 W/m² -
1788461824 23.89° C 68% 1017.7 hPa 0 mm - 668 W/m² -
1788461518 23.89° C 67% 1017.7 hPa 0 mm - 661 W/m² -
1788461215 23.89° C 68% 1017.7 hPa 0 mm - 657 W/m² -
1788460920 23.89° C 68% 1017.7 hPa 0 mm - 652 W/m² -
1788460610 23.89° C 68% 1017.7 hPa 0 mm - 645 W/m² -

* Rain latest hour (hover to see other rain measurements)
** Current wind speed in m/s (hover to see current wind gust speed)